Terminal Aerodrome Forecast
Issued by NWS Quad Cities IA IL

Home | Current Version | Previous Version | Text Only | Print | Product List | Glossary On
Versions: 1 2 3 4 5 6 7 8 9 10 11 12 13 14 15 16 17
000
FTUS43 KDVN 061700
TAFMLI
TAF
KMLI 061736Z 0618/0718 20013G22KT P6SM SKC
     FM062000 22011KT P6SM SKC
     FM070500 24005KT P6SM BKN100
     FM071600 27009KT P6SM SCT080=

USA.gov is the U.S. government's official web portal to all federal, state and local government web resources and services.